QPF
0.01 0.01 0.00 0.00 0.00 0.00 0.00 0.00 0.00 0.00 0.00 0.00 0.00 0.00 0.00 0.00 0.00 0.00 0.00 0.00 0.00 0.00 0.02 0.02 0.02 0.01 0.01 0.00 0.00 0.01 0.01 0.01 0.01 0.01 0.01 0.02 0.02 0.02 0.01 0.01 0.00 0.00 0.00
0.01 0.01 0.01 0.01 0.00 0.00 0.00 0.00 0.00 0.00 0.00 0.00 0.00 0.00 0.00 0.00 0.00 0.00 0.00 0.00 0.00 0.00 0.00 0.01 0.01 0.02 0.02 0.02 0.01 0.01 0.01 0.01 0.01 0.02 0.01 0.02 0.02 0.02 0.02 0.01 0.00 0.00 0.00
0.01 0.01 0.01 0.01 0.01 0.00 0.00 0.00 0.00 0.00 0.00 0.00 0.00 0.00 0.00 0.00 0.00 0.00 0.00 0.00 0.00 0.00 0.00 0.00 0.00 0.00 0.01 0.01 0.01 0.01 0.01 0.02 0.01 0.02 0.02 0.01 0.02 0.01 0.01 0.01 0.01 0.00 0.00
0.01 0.01 0.01 0.01 0.02 0.01 0.00 0.00 0.00 0.00 0.00 0.00 0.00 0.00 0.00 0.00 0.00 0.00 0.00 0.00 0.00 0.00 0.00 0.00 0.00 0.00 0.00 0.00 0.00 0.00 0.01 0.02 0.02 0.02 0.01 0.01 0.01 0.01 0.01 0.01 0.01 0.01 0.00
0.01 0.01 0.02 0.02 0.02 0.01 0.00 0.00 0.00 0.00 0.00 0.00 0.00 0.00 0.00 0.00 0.00 0.00 0.00 0.00 0.00 0.00 0.00 0.00 0.00 0.00 0.00 0.00 0.00 0.00 0.01 0.02 0.02 0.02 0.02 0.01 0.01 0.01 0.01 0.00 0.00 0.00 0.00
0.01 0.01 0.01 0.01 0.01 0.01 0.00 0.00 0.00 0.00 0.00 0.00 0.00 0.00 0.00 0.00 0.00 0.00 0.00 0.00 0.00 0.00 0.00 0.00 0.01 0.01 0.01 0.00 0.00 0.00 0.00 0.01 0.01 0.02 0.02 0.03 0.02 0.01 0.00 0.00 0.00 0.01 0.01
0.01 0.01 0.01 0.01 0.01 0.01 0.00 0.00 0.00 0.00 0.00 0.00 0.00 0.00 0.00 0.00 0.00 0.00 0.00 0.00 0.00 0.00 0.00 0.00 0.00 0.01 0.00 0.00 0.00 0.00 0.00 0.00 0.00 0.01 0.01 0.02 0.02 0.02 0.02 0.01 0.01 0.01 0.01
0.01 0.01 0.01 0.01 0.01 0.01 0.00 0.00 0.00 0.00 0.00 0.00 0.00 0.00 0.00 0.00 0.00 0.00 0.00 0.00 0.00 0.00 0.00 0.00 0.00 0.00 0.00 0.00 0.00 0.00 0.00 0.00 0.00 0.00 0.00 0.00 0.01 0.01 0.01 0.01 0.01 0.01 0.01
0.01 0.01 0.01 0.01 0.01 0.01 0.01 0.01 0.00 0.01 0.01 0.01 0.01 0.01 0.01 0.01 0.01 0.00 0.00 0.00 0.00 0.00 0.00 0.00 0.00 0.00 0.00 0.00 0.00 0.00 0.00 0.00 0.00 0.00 0.00 0.00 0.00 0.00 0.00 0.00 0.01 0.00 0.00
0.01 0.01 0.02 0.01 0.01 0.01 0.01 0.01 0.01 0.01 0.01 0.01 0.01 0.01 0.01 0.01 0.01 0.00 0.00 0.00 0.00 0.00 0.00 0.00 0.00 0.00 0.00 0.00 0.00 0.00 0.00 0.00 0.00 0.00 0.00 0.00 0.00 0.00 0.00 0.00 0.00 0.00 0.01
0.01 0.01 0.01 0.01 0.01 0.02 0.02 0.02 0.01 0.01 0.01 0.01 0.01 0.01 0.01 0.01 0.01 0.01 0.01 0.00 0.00 0.00 0.00 0.00 0.00 0.00 0.00 0.00 0.00 0.00 0.00 0.00 0.00 0.00 0.00 0.00 0.00 0.00 0.00 0.00 0.00 0.00 0.00
0.01 0.01 0.01 0.01 0.01 0.01 0.02 0.02 0.02 0.02 0.01 0.01 0.01 0.01 0.01 0.01 0.01 0.01 0.01 0.01 0.01 0.00 0.00 0.00 0.00 0.01 0.01 0.00 0.00 0.00 0.00 0.00 0.00 0.00 0.00 0.00 0.00 0.00 0.00 0.00 0.00 0.00 0.00
0.02 0.02 0.02 0.02 0.01 0.01 0.02 0.03 0.02 0.02 0.02 0.02 0.01 0.01 0.01 0.01 0.01 0.01 0.01 0.01 0.01 0.00 0.00 0.00 0.00 0.00 0.00 0.00 0.00 0.01 0.01 0.01 0.00 0.00 0.00 0.00 0.00 0.00 0.00 0.00 0.00 0.00 0.00
0.02 0.02 0.01 0.01 0.02 0.02 0.02 0.02 0.02 0.02 0.02 0.02 0.03 0.03 0.03 0.01 0.01 0.01 0.01 0.01 0.01 0.01 0.00 0.00 0.00 0.00 0.00 0.01 0.01 0.01 0.01 0.00 0.00 0.00 0.00 0.00 0.00 0.00 0.00 0.00 0.00 0.00 0.00
0.01 0.02 0.02 0.01 0.01 0.02 0.01 0.01 0.02 0.02 0.03 0.04 0.05 0.07 0.06 0.04 0.03 0.03 0.02 0.01 0.01 0.00 0.00 0.00 0.00 0.00 0.00 0.00 0.00 0.00 0.00 0.00 0.00 0.00 0.00 0.00 0.00 0.00 0.00 0.00 0.00 0.00 0.00
0.01 0.01 0.01 0.01 0.01 0.02 0.02 0.02 0.02 0.02 0.04 0.06 0.06 0.07 0.06 0.05 0.03 0.02 0.01 0.01 0.00 0.00 0.00 0.00 0.00 0.00 0.00 0.00 0.00 0.00 0.00 0.00 0.00 0.00 0.00 0.00 0.00 0.00 0.00 0.00 0.00 0.00 0.00
0.02 0.02 0.01 0.02 0.02 0.04 0.04 0.03 0.02 0.02 0.02 0.05 0.05 0.05 0.05 0.04 0.02 0.02 0.01 0.01 0.00 0.00 0.00 0.00 0.00 0.00 0.00 0.00 0.00 0.00 0.00 0.00 0.00 0.00 0.00 0.00 0.00 0.00 0.00 0.00 0.00 0.00 0.00
0.02 0.02 0.03 0.02 0.02 0.03 0.03 0.04 0.03 0.02 0.02 0.02 0.03 0.05 0.06 0.05 0.03 0.03 0.02 0.01 0.01 0.00 0.00 0.00 0.00 0.00 0.00 0.00 0.00 0.00 0.00 0.00 0.00 0.00 0.00 0.00 0.00 0.00 0.00 0.00 0.00 0.00 0.00
0.01 0.01 0.02 0.02 0.02 0.03 0.03 0.02 0.02 0.02 0.02 0.02 0.02 0.03 0.03 0.02 0.02 0.02 0.01 0.00 0.00 0.00 0.00 0.00 0.01 0.01 0.00 0.00 0.00 0.00 0.00 0.00 0.00 0.00 0.00 0.00 0.00 0.00 0.00 0.00 0.00 0.01 0.00
0.01 0.02 0.02 0.02 0.02 0.03 0.03 0.02 0.01 0.01 0.01 0.01 0.01 0.01 0.01 0.01 0.01 0.01 0.00 0.00 0.00 0.00 0.01 0.00 0.00 0.00 0.01 0.01 0.01 0.01 0.00 0.00 0.00 0.00 0.00 0.00 0.00 0.00 0.00 0.00 0.00 0.00 0.00
0.01 0.01 0.01 0.02 0.02 0.03 0.03 0.02 0.01 0.01 0.01 0.01 0.01 0.01 0.01 0.01 0.01 0.01 0.01 0.01 0.00 0.00 0.00 0.01 0.01 0.01 0.01 0.01 0.01 0.01 0.01 0.01 0.01 0.00 0.00 0.00 0.00 0.00 0.00 0.00 0.00 0.00 0.00
0.01 0.01 0.02 0.01 0.01 0.01 0.02 0.02 0.01 0.02 0.02 0.02 0.02 0.02 0.02 0.02 0.02 0.02 0.02 0.03 0.02 0.01 0.01 0.01 0.01 0.01 0.01 0.01 0.01 0.01 0.01 0.00 0.00 0.00 0.00 0.00 0.00 0.00 0.00 0.00 0.00 0.00 0.00
0.01 0.01 0.01 0.01 0.01 0.01 0.01 0.01 0.01 0.02 0.03 0.03 0.03 0.02 0.02 0.02 0.03 0.03 0.03 0.03 0.04 0.03 0.02 0.01 0.01 0.01 0.01 0.01 0.01 0.00 0.00 0.00 0.00 0.01 0.01 0.01 0.01 0.01 0.01 0.01 0.01 0.01 0.01
0.02 0.02 0.01 0.01 0.01 0.01 0.01 0.01 0.01 0.01 0.02 0.02 0.01 0.01 0.02 0.02 0.03 0.04 0.03 0.02 0.02 0.02 0.01 0.01 0.01 0.01 0.01 0.00 0.00 0.00 0.00 0.00 0.01 0.01 0.01 0.01 0.01 0.01 0.01 0.01 0.01 0.01 0.01
0.01 0.03 0.02 0.01 0.01 0.01 0.01 0.01 0.01 0.01 0.01 0.01 0.02 0.02 0.02 0.02 0.02 0.02 0.03 0.02 0.02 0.01 0.01 0.01 0.01 0.01 0.01 0.01 0.01 0.01 0.01 0.01 0.01 0.01 0.01 0.01 0.00 0.00 0.00 0.00 0.00 0.00 0.00
0.02 0.03 0.04 0.03 0.01 0.01 0.02 0.02 0.02 0.02 0.02 0.02 0.02 0.02 0.01 0.01 0.01 0.01 0.02 0.02 0.03 0.03 0.03 0.02 0.02 0.02 0.02 0.02 0.02 0.02 0.02 0.01 0.01 0.01 0.00 0.00 0.00 0.00 0.00 0.01 0.01 0.01 0.01
MSLP
1017.64 1018.09 1018.52 1018.93 1019.28 1019.58 1019.82 1020.00 1020.15 1020.29 1020.41 1020.55 1020.69 1020.84 1020.98 1021.12 1021.23 1021.32 1021.39 1021.43 1021.47 1021.51 1021.56 1021.61 1021.68 1021.76 1021.86 1021.96 1022.08 1022.20 1022.31 1022.43 1022.52 1022.59 1022.62 1022.59 1022.52 1022.39 1022.23 1022.03 1021.82 1021.63 1021.46
1017.43 1017.87 1018.30 1018.71 1019.08 1019.40 1019.66 1019.89 1020.08 1020.25 1020.41 1020.58 1020.74 1020.90 1021.06 1021.20 1021.32 1021.42 1021.51 1021.57 1021.62 1021.66 1021.69 1021.73 1021.77 1021.83 1021.90 1021.98 1022.08 1022.19 1022.32 1022.45 1022.57 1022.66 1022.72 1022.72 1022.67 1022.55 1022.39 1022.19 1021.97 1021.75 1021.56
1017.17 1017.62 1018.06 1018.48 1018.86 1019.20 1019.50 1019.76 1019.99 1020.20 1020.39 1020.58 1020.76 1020.93 1021.10 1021.25 1021.38 1021.50 1021.59 1021.67 1021.74 1021.79 1021.83 1021.87 1021.91 1021.95 1022.00 1022.06 1022.15 1022.25 1022.37 1022.50 1022.62 1022.73 1022.79 1022.81 1022.77 1022.66 1022.50 1022.30 1022.06 1021.82 1021.59
1016.85 1017.33 1017.79 1018.22 1018.63 1018.99 1019.32 1019.62 1019.88 1020.13 1020.35 1020.56 1020.76 1020.95 1021.11 1021.27 1021.41 1021.53 1021.65 1021.74 1021.83 1021.90 1021.96 1022.01 1022.05 1022.08 1022.12 1022.16 1022.22 1022.30 1022.40 1022.51 1022.62 1022.72 1022.79 1022.82 1022.78 1022.69 1022.54 1022.33 1022.09 1021.83 1021.57
1016.48 1017.00 1017.49 1017.95 1018.38 1018.77 1019.13 1019.46 1019.76 1020.04 1020.30 1020.53 1020.74 1020.93 1021.10 1021.26 1021.40 1021.53 1021.66 1021.77 1021.88 1021.97 1022.05 1022.11 1022.16 1022.19 1022.21 1022.23 1022.26 1022.30 1022.36 1022.44 1022.52 1022.61 1022.67 1022.70 1022.67 1022.60 1022.47 1022.28 1022.05 1021.79 1021.51
1016.07 1016.63 1017.17 1017.66 1018.11 1018.54 1018.93 1019.29 1019.62 1019.94 1020.22 1020.47 1020.69 1020.89 1021.06 1021.21 1021.34 1021.47 1021.60 1021.72 1021.84 1021.95 1022.05 1022.12 1022.17 1022.20 1022.20 1022.20 1022.19 1022.19 1022.21 1022.24 1022.29 1022.34 1022.40 1022.43 1022.43 1022.39 1022.29 1022.14 1021.94 1021.70 1021.42
1015.63 1016.25 1016.82 1017.35 1017.83 1018.28 1018.70 1019.09 1019.46 1019.80 1020.10 1020.37 1020.60 1020.79 1020.96 1021.09 1021.22 1021.33 1021.45 1021.58 1021.70 1021.82 1021.92 1022.01 1022.06 1022.08 1022.07 1022.04 1021.99 1021.95 1021.92 1021.91 1021.92 1021.95 1022.00 1022.04 1022.07 1022.06 1022.02 1021.92 1021.77 1021.57 1021.32
1015.19 1015.86 1016.46 1017.02 1017.53 1018.00 1018.44 1018.86 1019.25 1019.61 1019.93 1020.22 1020.45 1020.64 1020.78 1020.90 1021.00 1021.10 1021.20 1021.31 1021.43 1021.55 1021.66 1021.75 1021.80 1021.82 1021.80 1021.75 1021.67 1021.60 1021.53 1021.48 1021.47 1021.48 1021.52 1021.58 1021.63 1021.67 1021.68 1021.64 1021.55 1021.40 1021.19
1014.78 1015.48 1016.11 1016.68 1017.20 1017.69 1018.15 1018.58 1019.00 1019.38 1019.71 1020.00 1020.23 1020.41 1020.54 1020.63 1020.70 1020.77 1020.85 1020.94 1021.05 1021.16 1021.27 1021.37 1021.43 1021.46 1021.44 1021.38 1021.29 1021.20 1021.11 1021.04 1021.01 1021.01 1021.05 1021.11 1021.19 1021.27 1021.32 1021.34 1021.30 1021.20 1021.04
1014.42 1015.12 1015.76 1016.34 1016.87 1017.36 1017.83 1018.28 1018.71 1019.10 1019.45 1019.74 1019.96 1020.12 1020.23 1020.30 1020.34 1020.38 1020.42 1020.50 1020.59 1020.71 1020.83 1020.93 1021.02 1021.06 1021.06 1021.02 1020.94 1020.85 1020.76 1020.68 1020.64 1020.64 1020.67 1020.74 1020.83 1020.92 1021.00 1021.04 1021.04 1020.98 1020.84
1014.12 1014.81 1015.44 1016.01 1016.53 1017.03 1017.51 1017.97 1018.41 1018.81 1019.16 1019.45 1019.67 1019.81 1019.90 1019.94 1019.95 1019.96 1019.99 1020.05 1020.14 1020.26 1020.39 1020.53 1020.64 1020.73 1020.76 1020.76 1020.71 1020.65 1020.57 1020.51 1020.46 1020.45 1020.48 1020.54 1020.62 1020.70 1020.77 1020.81 1020.81 1020.75 1020.63
1013.89 1014.55 1015.15 1015.70 1016.22 1016.72 1017.21 1017.68 1018.12 1018.54 1018.89 1019.18 1019.39 1019.53 1019.59 1019.61 1019.61 1019.60 1019.62 1019.68 1019.78 1019.91 1020.08 1020.25 1020.42 1020.55 1020.65 1020.69 1020.70 1020.67 1020.63 1020.58 1020.54 1020.53 1020.53 1020.56 1020.60 1020.65 1020.68 1020.68 1020.64 1020.56 1020.42
1013.73 1014.34 1014.91 1015.45 1015.96 1016.47 1016.96 1017.45 1017.91 1018.33 1018.70 1018.99 1019.20 1019.32 1019.38 1019.39 1019.38 1019.38 1019.40 1019.47 1019.59 1019.77 1019.97 1020.20 1020.42 1020.62 1020.78 1020.89 1020.95 1020.97 1020.96 1020.93 1020.90 1020.87 1020.85 1020.84 1020.82 1020.80 1020.77 1020.70 1020.60 1020.46 1020.28
1013.65 1014.21 1014.75 1015.27 1015.78 1016.30 1016.81 1017.32 1017.80 1018.24 1018.62 1018.92 1019.14 1019.27 1019.33 1019.35 1019.35 1019.36 1019.41 1019.51 1019.67 1019.88 1020.14 1020.42 1020.70 1020.96 1021.18 1021.36 1021.47 1021.54 1021.56 1021.55 1021.52 1021.48 1021.42 1021.35 1021.27 1021.17 1021.05 1020.90 1020.72 1020.51 1020.26
1013.66 1014.17 1014.68 1015.19 1015.71 1016.25 1016.80 1017.33 1017.85 1018.31 1018.71 1019.03 1019.26 1019.41 1019.49 1019.53 1019.56 1019.60 1019.69 1019.83 1020.03 1020.30 1020.61 1020.94 1021.27 1021.59 1021.86 1022.07 1022.23 1022.33 1022.38 1022.38 1022.34 1022.27 1022.18 1022.06 1021.91 1021.73 1021.53 1021.29 1021.02 1020.73 1020.41
1013.75 1014.22 1014.72 1015.24 1015.78 1016.35 1016.94 1017.52 1018.07 1018.57 1018.99 1019.34 1019.60 1019.77 1019.89 1019.97 1020.04 1020.13 1020.26 1020.45 1020.70 1021.01 1021.36 1021.73 1022.10 1022.44 1022.73 1022.97 1023.14 1023.25 1023.30 1023.30 1023.25 1023.15 1023.03 1022.86 1022.66 1022.42 1022.15 1021.84 1021.49 1021.13 1020.74
1013.96 1014.40 1014.89 1015.42 1016.00 1016.62 1017.25 1017.87 1018.46 1019.00 1019.47 1019.84 1020.14 1020.35 1020.51 1020.64 1020.76 1020.91 1021.09 1021.33 1021.62 1021.96 1022.34 1022.72 1023.09 1023.42 1023.71 1023.93 1024.09 1024.19 1024.22 1024.20 1024.13 1024.01 1023.86 1023.66 1023.42 1023.14 1022.82 1022.46 1022.07 1021.65 1021.20
1014.28 1014.71 1015.21 1015.77 1016.38 1017.04 1017.71 1018.38 1019.02 1019.60 1020.10 1020.52 1020.86 1021.12 1021.33 1021.52 1021.70 1021.89 1022.13 1022.40 1022.72 1023.07 1023.44 1023.80 1024.15 1024.44 1024.69 1024.86 1024.98 1025.03 1025.02 1024.97 1024.87 1024.73 1024.56 1024.34 1024.09 1023.79 1023.45 1023.07 1022.65 1022.19 1021.72
1014.74 1015.17 1015.68 1016.27 1016.92 1017.61 1018.33 1019.04 1019.71 1020.33 1020.87 1021.33 1021.71 1022.03 1022.29 1022.53 1022.76 1023.01 1023.28 1023.58 1023.90 1024.24 1024.58 1024.89 1025.17 1025.40 1025.56 1025.67 1025.71 1025.69 1025.63 1025.53 1025.40 1025.24 1025.05 1024.83 1024.57 1024.28 1023.94 1023.55 1023.13 1022.66 1022.16
1015.35 1015.79 1016.31 1016.92 1017.60 1018.32 1019.07 1019.81 1020.51 1021.16 1021.74 1022.23 1022.66 1023.02 1023.33 1023.62 1023.89 1024.17 1024.46 1024.77 1025.07 1025.38 1025.65 1025.89 1026.08 1026.21 1026.28 1026.28 1026.23 1026.13 1026.00 1025.84 1025.67 1025.49 1025.29 1025.07 1024.82 1024.53 1024.21 1023.83 1023.41 1022.94 1022.43
1016.12 1016.56 1017.09 1017.72 1018.41 1019.15 1019.91 1020.67 1021.39 1022.06 1022.65 1023.18 1023.64 1024.04 1024.39 1024.71 1025.02 1025.31 1025.60 1025.89 1026.15 1026.40 1026.59 1026.74 1026.82 1026.84 1026.79 1026.68 1026.53 1026.34 1026.14 1025.92 1025.71 1025.50 1025.28 1025.06 1024.81 1024.54 1024.22 1023.86 1023.44 1022.97 1022.45
1017.04 1017.48 1018.02 1018.65 1019.34 1020.08 1020.84 1021.60 1022.32 1022.99 1023.61 1024.15 1024.63 1025.05 1025.42 1025.76 1026.07 1026.36 1026.63 1026.88 1027.09 1027.25 1027.36 1027.40 1027.37 1027.27 1027.11 1026.89 1026.64 1026.37 1026.09 1025.82 1025.56 1025.31 1025.08 1024.84 1024.59 1024.31 1023.99 1023.62 1023.20 1022.72 1022.19
1018.09 1018.53 1019.07 1019.69 1020.38 1021.11 1021.85 1022.59 1023.30 1023.97 1024.57 1025.12 1025.60 1026.02 1026.40 1026.73 1027.03 1027.29 1027.52 1027.71 1027.84 1027.92 1027.93 1027.87 1027.73 1027.53 1027.27 1026.96 1026.62 1026.27 1025.93 1025.60 1025.30 1025.01 1024.74 1024.48 1024.20 1023.91 1023.57 1023.18 1022.74 1022.23 1021.68
1019.23 1019.69 1020.22 1020.83 1021.50 1022.21 1022.93 1023.64 1024.32 1024.96 1025.55 1026.08 1026.54 1026.95 1027.30 1027.61 1027.87 1028.09 1028.26 1028.37 1028.43 1028.42 1028.34 1028.18 1027.95 1027.66 1027.32 1026.93 1026.53 1026.12 1025.73 1025.35 1025.00 1024.67 1024.36 1024.05 1023.73 1023.39 1023.01 1022.58 1022.10 1021.57 1020.98
1020.44 1020.91 1021.45 1022.05 1022.69 1023.37 1024.05 1024.73 1025.38 1025.98 1026.53 1027.02 1027.45 1027.82 1028.14 1028.39 1028.60 1028.75 1028.85 1028.89 1028.86 1028.77 1028.60 1028.37 1028.07 1027.71 1027.31 1026.88 1026.43 1025.98 1025.54 1025.11 1024.71 1024.33 1023.96 1023.59 1023.21 1022.81 1022.37 1021.89 1021.36 1020.79 1020.17
1021.68 1022.17 1022.71 1023.29 1023.92 1024.56 1025.21 1025.84 1026.45 1027.00 1027.51 1027.95 1028.33 1028.64 1028.90 1029.09 1029.23 1029.31 1029.33 1029.28 1029.18 1029.01 1028.77 1028.48 1028.12 1027.72 1027.28 1026.81 1026.33 1025.84 1025.36 1024.89 1024.43 1023.98 1023.54 1023.10 1022.64 1022.17 1021.66 1021.11 1020.54 1019.92 1019.28
Thickness
5705 5704 5703 5702 5701 5700 5698 5697 5697 5696 5695 5693 5692 5691 5690 5688 5687 5685 5684 5682 5681 5679 5678 5677 5675 5674 5672 5671 5670 5669 5667 5665 5662 5660 5660 5660 5661 5661 5661 5661 5662 5662 5663
5706 5704 5703 5701 5700 5698 5697 5697 5696 5695 5693 5692 5691 5689 5688 5686 5685 5683 5682 5680 5678 5677 5675 5674 5673 5672 5670 5669 5667 5666 5664 5663 5660 5658 5656 5655 5655 5655 5655 5656 5656 5657 5657
5705 5703 5701 5700 5698 5697 5696 5696 5695 5693 5691 5690 5689 5687 5686 5685 5683 5682 5680 5678 5676 5675 5673 5672 5671 5669 5667 5666 5664 5662 5661 5660 5657 5655 5652 5650 5650 5650 5649 5650 5650 5650 5651
5703 5701 5700 5699 5698 5697 5696 5694 5693 5692 5690 5688 5687 5685 5684 5683 5681 5680 5678 5676 5674 5672 5671 5670 5668 5666 5665 5663 5662 5659 5657 5655 5652 5650 5648 5645 5644 5644 5643 5642 5642 5642 5643
5702 5700 5699 5698 5697 5695 5693 5692 5691 5689 5688 5686 5684 5683 5682 5680 5679 5677 5675 5673 5671 5669 5668 5666 5666 5665 5663 5662 5659 5656 5654 5650 5647 5645 5642 5640 5639 5638 5637 5636 5635 5635 5636
5702 5700 5699 5697 5695 5693 5691 5689 5688 5686 5685 5683 5681 5680 5679 5678 5678 5676 5673 5670 5668 5666 5664 5663 5662 5661 5660 5659 5657 5655 5652 5648 5644 5641 5638 5636 5635 5634 5632 5631 5628 5628 5628
5701 5699 5697 5695 5693 5691 5689 5686 5685 5683 5681 5680 5678 5677 5675 5675 5675 5673 5671 5667 5664 5662 5660 5659 5658 5657 5655 5654 5652 5651 5648 5646 5644 5640 5636 5633 5632 5631 5628 5626 5623 5621 5620
5700 5698 5696 5693 5691 5688 5686 5684 5682 5680 5678 5676 5675 5673 5672 5672 5672 5670 5667 5664 5661 5659 5657 5655 5653 5652 5651 5649 5647 5644 5642 5640 5639 5637 5634 5632 5630 5628 5624 5622 5618 5616 5614
5698 5696 5694 5692 5689 5686 5683 5682 5680 5677 5675 5673 5672 5670 5668 5668 5667 5665 5663 5659 5656 5655 5653 5652 5650 5648 5647 5645 5641 5638 5636 5635 5634 5632 5630 5627 5625 5622 5619 5614 5611 5608 5608
5698 5696 5693 5690 5688 5685 5683 5680 5677 5675 5672 5670 5668 5666 5665 5664 5663 5661 5659 5655 5651 5650 5648 5647 5645 5644 5642 5640 5636 5633 5630 5629 5628 5625 5623 5621 5618 5616 5613 5609 5606 5601 5598
5697 5694 5691 5688 5686 5684 5681 5678 5674 5672 5668 5665 5663 5661 5660 5659 5658 5657 5654 5651 5648 5645 5643 5641 5640 5639 5637 5635 5632 5629 5627 5625 5621 5618 5616 5613 5611 5608 5606 5603 5599 5596 5592
5693 5690 5687 5685 5683 5681 5677 5673 5670 5667 5663 5659 5657 5655 5654 5653 5653 5651 5649 5647 5645 5641 5638 5636 5635 5633 5631 5628 5626 5624 5621 5618 5614 5610 5607 5605 5603 5601 5599 5596 5593 5589 5587
5688 5685 5682 5680 5678 5676 5672 5668 5664 5661 5658 5655 5652 5649 5647 5646 5646 5645 5644 5642 5639 5636 5634 5631 5629 5626 5623 5621 5619 5616 5613 5609 5606 5602 5600 5598 5595 5593 5590 5587 5585 5581 5578
5682 5679 5676 5674 5671 5669 5666 5663 5659 5655 5652 5649 5647 5643 5641 5639 5638 5637 5636 5634 5632 5629 5626 5624 5621 5618 5615 5612 5610 5607 5604 5601 5597 5594 5591 5589 5586 5583 5580 5577 5574 5571 5568
5676 5673 5670 5668 5665 5661 5658 5655 5654 5652 5650 5647 5643 5640 5636 5633 5633 5632 5629 5627 5624 5622 5618 5614 5610 5607 5604 5601 5599 5596 5594 5591 5587 5584 5581 5578 5576 5573 5570 5567 5563 5560 5556
5670 5667 5664 5661 5658 5655 5650 5646 5645 5644 5643 5641 5639 5635 5632 5630 5627 5625 5622 5620 5617 5613 5609 5603 5600 5596 5594 5591 5589 5586 5583 5580 5577 5575 5571 5568 5565 5562 5559 5556 5552 5548 5545
5666 5662 5659 5655 5652 5648 5644 5640 5636 5634 5633 5631 5629 5627 5625 5622 5619 5616 5613 5610 5606 5603 5598 5594 5590 5587 5584 5581 5578 5575 5572 5570 5567 5563 5560 5556 5553 5550 5547 5544 5541 5537 5534
5660 5657 5653 5649 5646 5642 5638 5634 5631 5628 5623 5620 5619 5618 5616 5613 5610 5607 5603 5600 5594 5591 5587 5583 5580 5577 5573 5570 5568 5565 5562 5558 5555 5551 5548 5544 5541 5537 5534 5531 5528 5524 5522
5653 5649 5645 5642 5638 5635 5631 5628 5624 5620 5616 5612 5609 5607 5606 5603 5600 5596 5593 5588 5584 5579 5576 5573 5569 5566 5563 5560 5557 5553 5550 5546 5543 5539 5535 5531 5527 5524 5521 5518 5514 5511 5508
5645 5643 5639 5634 5631 5627 5623 5620 5616 5612 5607 5603 5600 5597 5594 5591 5587 5583 5580 5577 5573 5569 5566 5562 5558 5555 5552 5549 5545 5541 5537 5533 5530 5526 5522 5518 5514 5510 5507 5503 5500 5496 5493
5637 5634 5631 5627 5622 5619 5615 5611 5607 5603 5599 5595 5591 5589 5587 5582 5578 5574 5570 5566 5562 5559 5555 5551 5547 5543 5540 5536 5532 5528 5524 5520 5516 5512 5508 5504 5500 5496 5493 5489 5485 5482 5478
5629 5625 5622 5618 5614 5610 5606 5602 5598 5594 5590 5586 5581 5578 5576 5572 5567 5562 5559 5556 5552 5548 5544 5540 5535 5531 5527 5523 5519 5515 5511 5507 5503 5499 5495 5490 5486 5483 5479 5475 5471 5467 5464
5620 5616 5612 5608 5605 5601 5596 5592 5588 5584 5580 5576 5572 5568 5564 5560 5556 5552 5548 5544 5540 5536 5532 5528 5523 5519 5514 5510 5506 5501 5497 5493 5488 5484 5480 5476 5472 5469 5464 5461 5457 5453 5449
5611 5607 5603 5599 5595 5591 5586 5582 5578 5574 5570 5566 5562 5557 5553 5549 5544 5540 5536 5532 5528 5524 5520 5515 5510 5506 5502 5497 5493 5488 5483 5479 5474 5470 5466 5462 5458 5454 5450 5446 5442 5438 5434
5601 5597 5593 5589 5585 5581 5576 5572 5568 5564 5560 5555 5551 5546 5542 5537 5533 5528 5524 5520 5516 5512 5507 5502 5497 5493 5488 5484 5479 5474 5470 5465 5461 5457 5452 5448 5444 5440 5436 5432 5428 5424 5421
5591 5587 5583 5579 5575 5571 5566 5562 5557 5553 5548 5544 5539 5534 5530 5525 5521 5516 5512 5508 5503 5499 5494 5489 5484 5480 5475 5470 5466 5462 5457 5453 5449 5444 5440 5436 5431 5427 5423 5419 5416 5412 5409